Weather History for KCDJ - November, 2013

Change the Weather History Date:

Saturday, November 23, 2013

  Actual Average (KIRK) Record (KIRK)
Temperature  
Mean Temperature 20 °F 37 °F  
Max Temperature 25 °F 46 °F 71 °F (1966)
Min Temperature 12 °F 28 °F 8 °F (1970)
Degree Days  
Heating Degree Days 46 28  
Month to date heating degree days 525  
Since 1 July heating degree days 1014  
Cooling Degree Days 0 0  
Month to date cooling degree days 0  
Year to date cooling degree days 939  
Moisture  
Dew Point 10 °F    
Average Humidity 63    
Maximum Humidity 82    
Minimum Humidity 48    
Precipitation  
Precipitation 0.00 in 0.07 in 0.86 in (2014)
Month to date precipitation 2.16  
Year to date precipitation 37.00  
Sea Level Pressure  
Sea Level Pressure 30.81 in    
Wind  
Wind Speed 6 mph (North)    
Max Wind Speed 14 mph    
Max Gust Speed 22 mph    
T = Trace of Precipitation, MM = Missing Value Source: NWS Daily Summary

Daily Weather History Graph

Daily Weather History Graph

Search for Another Location

Airport or City:

Trip Planner

Search our weather history database for the weather conditions in past years. The results will help you decide how hot, cold, wet, or windy it might be!

Date:

Astronomy

Nov. 23, 2013 Rise Set
Actual Time 7:08 AM CST 4:53 PM CST
Civil Twilight 6:38 AM CST 5:22 PM CST
Nautical Twilight 6:05 AM CST 5:55 PM CST
Astronomical Twilight 5:33 AM CST 6:27 PM CST
Moon 10:21 PM CST (11/23) 11:25 AM CST (11/23)
Length of Visible Light 10h 43m
Length of Day
9h 44m
Waning Gibbous, 69% of the Moon is Illuminated
Nov 23
Waning Gibbous
Nov 25
Last Quarter
Dec 2
New
Dec 9
First Quarter
Dec 17
Full

Hourly Weather History & Observations

Time (CST) Temp. Windchill Dew Point Humidity Pressure Visibility Wind Dir Wind Speed Gust Speed Precip Events Conditions
12:52 AM 23.0 °F 18.4 °F 17.1 °F 78% 30.68 in - NW 3.5 mph - N/A   Unknown
1:52 AM 21.9 °F - 17.1 °F 82% 30.69 in - Calm Calm - N/A   Unknown
2:52 AM 21.9 °F 15.7 °F 15.1 °F 75% 30.69 in - NW 4.6 mph - N/A   Unknown
3:52 AM 24.1 °F 16.0 °F 12.9 °F 62% 30.69 in - NNW 6.9 mph - N/A   Unknown
4:52 AM 23.0 °F 15.8 °F 14.0 °F 68% 30.71 in - Variable 5.8 mph - N/A   Unknown
5:52 AM 21.9 °F 13.4 °F 14.0 °F 72% 30.73 in - North 6.9 mph - N/A   Unknown
6:52 AM 21.9 °F 13.4 °F 10.9 °F 63% 30.77 in - North 6.9 mph - N/A   Unknown
7:52 AM 21.9 °F 10.4 °F 10.0 °F 60% 30.80 in - North 11.5 mph 17.3 mph N/A   Unknown
8:52 AM 21.0 °F 12.4 °F 10.0 °F 63% 30.83 in - NNW 6.9 mph 17.3 mph N/A   Unknown
9:52 AM 21.9 °F 10.4 °F 8.1 °F 55% 30.84 in - NNW 11.5 mph 18.4 mph N/A   Unknown
10:52 AM 24.1 °F 12.5 °F 9.0 °F 53% 30.86 in - NNW 12.7 mph 20.7 mph N/A   Unknown
11:52 AM 24.1 °F 13.7 °F 9.0 °F 53% 30.85 in - North 10.4 mph 21.9 mph N/A   Unknown
12:52 PM 24.1 °F 12.0 °F 9.0 °F 53% 30.85 in - North 13.8 mph 21.9 mph N/A   Unknown
1:52 PM 25.0 °F 13.6 °F 8.1 °F 49% 30.84 in - North 12.7 mph 18.4 mph N/A   Unknown
2:52 PM 25.0 °F 15.5 °F 9.0 °F 51% 30.85 in - NNW 9.2 mph - N/A   Unknown
3:52 PM 24.1 °F 16.0 °F 7.0 °F 48% 30.86 in - North 6.9 mph 17.3 mph N/A   Unknown
4:52 PM 21.0 °F 12.4 °F 6.1 °F 53% 30.86 in - North 6.9 mph - N/A   Unknown
5:52 PM 19.0 °F 11.1 °F 7.0 °F 59% 30.87 in - North 5.8 mph - N/A   Unknown
6:52 PM 17.1 °F 10.0 °F 7.0 °F 65% 30.88 in - North 4.6 mph - N/A   Unknown
7:52 PM 16.0 °F 8.8 °F 6.1 °F 65% 30.88 in - North 4.6 mph - N/A   Unknown
8:52 PM 15.1 °F 9.4 °F 6.1 °F 68% 30.88 in - North 3.5 mph - N/A   Unknown
9:52 PM 15.1 °F 7.7 °F 6.1 °F 68% 30.87 in - North 4.6 mph - N/A   Unknown
10:52 PM 14.0 °F 3.9 °F 6.1 °F 71% 30.86 in - North 6.9 mph - N/A   Unknown
11:52 PM 12.9 °F - 3.9 °F 67% 30.87 in - Calm Calm - N/A   Unknown